• In Netherlands
  • List of Countries
  • For 7 days
  • Water Temperature
  • Satellite Maps
  • Weather Map
  • Weather Widgets
  • user-avatar
    Login

    Hourly Weather Balchik

    Today, 30 April, Sunday

    Time Temperature Precipitation Wind Pressure Humidity
    00:00 +13°C° 0 mm 2 mps 737 mmHg 63%
    01:00 +12°C° 0 mm 2 mps 737 mmHg 64%
    02:00 +12°C° 0 mm 2 mps 737 mmHg 65%
    03:00 +10°C° 0 mm 2 mps 737 mmHg 70%
    04:00 +11°C° 0 mm 1 mps 737 mmHg 75%
    05:00 +10°C° 0 mm 1 mps 737 mmHg 80%
    06:00 +12°C° 0 mm 1 mps 737 mmHg 74%
    07:00 +14°C° 0 mm 1 mps 737 mmHg 68%
    08:00 +17°C° 0 mm 2 mps 738 mmHg 63%
    09:00 +18°C° 0 mm 2 mps 738 mmHg 61%
    10:00 +19°C° 0 mm 2 mps 738 mmHg 60%
    11:00 +20°C° 0 mm 3 mps 738 mmHg 59%
    12:00 +20°C° 0 mm 3 mps 738 mmHg 59%
    13:00 +20°C° 0 mm 3 mps 738 mmHg 59%
    14:00 +20°C° 0 mm 3 mps 738 mmHg 59%
    15:00 +20°C° 0 mm 4 mps 738 mmHg 60%
    16:00 +19°C° 0 mm 4 mps 738 mmHg 62%
    17:00 +19°C° 0 mm 4 mps 738 mmHg 63%
    18:00 +17°C° 0 mm 3 mps 738 mmHg 68%
    19:00 +14°C° 0 mm 3 mps 738 mmHg 72%
    20:00 +13°C° 0 mm 2 mps 738 mmHg 76%
    21:00 +12°C° 0 mm 2 mps 738 mmHg 76%
    22:00 +10°C° 0 mm 3 mps 738 mmHg 75%
    23:00 +10°C° 0 mm 3 mps 738 mmHg 74%

    Tomorrow, 1 May, Monday

    Time Temperature Precipitation Wind Pressure Humidity
    00:00 +9°C° 0 mm 3 mps 738 mmHg 76%
    01:00 +9°C° 0 mm 3 mps 738 mmHg 77%
    02:00 +9°C° 0 mm 3 mps 738 mmHg 79%
    03:00 +7°C° 0 mm 4 mps 738 mmHg 83%
    04:00 +7°C° 0 mm 4 mps 738 mmHg 87%
    05:00 +7°C° 0 mm 4 mps 738 mmHg 90%
    06:00 +8°C° 0 mm 4 mps 739 mmHg 87%
    07:00 +11°C° 0 mm 4 mps 739 mmHg 84%
    08:00 +12°C° 0 mm 5 mps 739 mmHg 81%
    09:00 +14°C° 0 mm 5 mps 740 mmHg 73%
    10:00 +16°C° 0 mm 5 mps 740 mmHg 66%
    11:00 +19°C° 0 mm 5 mps 740 mmHg 58%
    12:00 +20°C° 0 mm 5 mps 740 mmHg 55%
    13:00 +20°C° 0 mm 5 mps 740 mmHg 52%
    14:00 +21°C° 0 mm 5 mps 740 mmHg 49%
    15:00 +21°C° 0 mm 5 mps 740 mmHg 51%
    16:00 +20°C° 0 mm 4 mps 739 mmHg 54%
    17:00 +20°C° 0 mm 4 mps 739 mmHg 57%
    18:00 +17°C° 0 mm 4 mps 739 mmHg 66%
    19:00 +14°C° 0 mm 3 mps 739 mmHg 76%
    20:00 +11°C° 0 mm 3 mps 740 mmHg 85%
    21:00 +12°C° 0 mm 2 mps 740 mmHg 86%
    22:00 +10°C° 0 mm 2 mps 740 mmHg 87%
    23:00 +9°C° 0 mm 2 mps 740 mmHg 88%

    Day after tomorrow, 2 May, Tuesday

    Time Temperature Precipitation Wind Pressure Humidity
    00:00 +9°C° 0 mm 2 mps 740 mmHg 87%
    01:00 +8°C° 0 mm 2 mps 740 mmHg 87%
    02:00 +8°C° 0 mm 2 mps 739 mmHg 86%
    03:00 +8°C° 0 mm 2 mps 739 mmHg 86%
    04:00 +8°C° 0 mm 2 mps 740 mmHg 85%
    05:00 +8°C° 0 mm 2 mps 740 mmHg 85%
    06:00 +11°C° 0 mm 3 mps 740 mmHg 77%
    07:00 +13°C° 0 mm 3 mps 740 mmHg 70%
    08:00 +16°C° 0 mm 3 mps 741 mmHg 62%
    09:00 +18°C° 0 mm 3 mps 741 mmHg 58%
    10:00 +20°C° 0 mm 3 mps 741 mmHg 53%
    11:00 +21°C° 0 mm 3 mps 741 mmHg 49%
    12:00 +22°C° 0 mm 4 mps 741 mmHg 48%
    13:00 +22°C° 0 mm 4 mps 741 mmHg 47%
    14:00 +23°C° 0 mm 4 mps 741 mmHg 46%
    15:00 +22°C° 0 mm 4 mps 741 mmHg 49%
    16:00 +22°C° 0 mm 4 mps 741 mmHg 52%
    17:00 +21°C° 0 mm 3 mps 740 mmHg 55%
    18:00 +18°C° 0 mm 3 mps 740 mmHg 64%
    19:00 +16°C° 0 mm 3 mps 740 mmHg 72%
    20:00 +13°C° 0 mm 2 mps 740 mmHg 81%
    21:00 +12°C° 0 mm 2 mps 740 mmHg 82%
    22:00 +12°C° 0 mm 2 mps 741 mmHg 84%
    23:00 +11°C° 0 mm 1 mps 741 mmHg 85%

    3 May, Wednesday

    Time Temperature Precipitation Wind Pressure Humidity
    00:00 +10°C° 0 mm 1 mps 740 mmHg 85%
    01:00 +10°C° 0 mm 1 mps 740 mmHg 85%
    02:00 +10°C° 0 mm 1 mps 740 mmHg 85%
    03:00 +10°C° 0 mm 1 mps 740 mmHg 84%
    04:00 +9°C° 0 mm 2 mps 740 mmHg 84%
    05:00 +9°C° 0 mm 2 mps 740 mmHg 83%
    06:00 +13°C° 0 mm 2 mps 740 mmHg 77%
    07:00 +15°C° 0 mm 2 mps 741 mmHg 70%
    08:00 +18°C° 0 mm 3 mps 741 mmHg 63%
    09:00 +19°C° 0 mm 3 mps 741 mmHg 60%
    10:00 +21°C° 0 mm 3 mps 741 mmHg 56%
    11:00 +22°C° 0 mm 4 mps 741 mmHg 53%
    12:00 +22°C° 0 mm 4 mps 741 mmHg 52%
    13:00 +23°C° 0 mm 4 mps 741 mmHg 52%
    14:00 +23°C° 0 mm 5 mps 741 mmHg 51%
    15:00 +22°C° 0 mm 5 mps 741 mmHg 54%
    16:00 +21°C° 0 mm 5 mps 740 mmHg 58%
    17:00 +20°C° 0 mm 4 mps 740 mmHg 61%
    18:00 +18°C° 0 mm 4 mps 740 mmHg 70%
    19:00 +14°C° 0 mm 3 mps 740 mmHg 79%
    20:00 +12°C° 0 mm 3 mps 740 mmHg 87%
    21:00 +12°C° 0 mm 2 mps 740 mmHg 88%
    22:00 +12°C° 0 mm 2 mps 740 mmHg 89%
    23:00 +10°C° 0 mm 2 mps 740 mmHg 90%

    4 May, Thursday

    Time Temperature Precipitation Wind Pressure Humidity
    00:00 +10°C° 0 mm 2 mps 740 mmHg 90%
    01:00 +9°C° 0 mm 2 mps 740 mmHg 89%
    02:00 +10°C° 0 mm 1 mps 739 mmHg 89%
    03:00 +10°C° 0 mm 1 mps 739 mmHg 89%
    04:00 +9°C° 0 mm 2 mps 739 mmHg 88%
    05:00 +9°C° 0 mm 2 mps 739 mmHg 87%
    06:00 +12°C° 0 mm 2 mps 740 mmHg 80%
    07:00 +15°C° 0 mm 2 mps 740 mmHg 73%
    08:00 +17°C° 0 mm 3 mps 740 mmHg 66%
    09:00 +19°C° 0 mm 3 mps 740 mmHg 62%
    10:00 +20°C° 0 mm 3 mps 740 mmHg 57%
    11:00 +22°C° 0 mm 3 mps 740 mmHg 53%
    12:00 +22°C° 0 mm 4 mps 740 mmHg 52%
    13:00 +22°C° 0 mm 4 mps 740 mmHg 51%
    14:00 +22°C° 0 mm 4 mps 740 mmHg 51%
    15:00 +21°C° 0 mm 4 mps 739 mmHg 54%
    16:00 +21°C° 0 mm 4 mps 739 mmHg 58%
    17:00 +20°C° 0 mm 4 mps 739 mmHg 61%
    18:00 +17°C° 0 mm 3 mps 739 mmHg 69%
    19:00 +14°C° 0 mm 3 mps 739 mmHg 77%
    20:00 +12°C° 0 mm 2 mps 739 mmHg 85%
    21:00 +10°C° 0 mm 2 mps 739 mmHg 85%
    22:00 +10°C° 0 mm 2 mps 739 mmHg 84%
    23:00 +10°C° 0 mm 1 mps 739 mmHg 84%

    5 May, Friday

    Time Temperature Precipitation Wind Pressure Humidity
    00:00 +10°C° 0 mm 1 mps 739 mmHg 84%
    01:00 +9°C° 0 mm 1 mps 738 mmHg 84%
    02:00 +9°C° 0 mm 1 mps 738 mmHg 85%
    03:00 +9°C° 0 mm 1 mps 738 mmHg 85%
    04:00 +9°C° 0 mm 1 mps 738 mmHg 85%
    05:00 +9°C° 0 mm 1 mps 738 mmHg 85%
    06:00 +11°C° 0 mm 1 mps 738 mmHg 78%
    07:00 +14°C° 0 mm 2 mps 738 mmHg 71%
    08:00 +17°C° 0 mm 2 mps 739 mmHg 65%
    09:00 +18°C° 0 mm 2 mps 739 mmHg 61%
    10:00 +20°C° 0 mm 3 mps 738 mmHg 58%
    11:00 +21°C° 0 mm 3 mps 738 mmHg 54%
    12:00 +21°C° 0 mm 3 mps 738 mmHg 54%
    13:00 +22°C° 0 mm 3 mps 738 mmHg 53%
    14:00 +22°C° 0 mm 4 mps 737 mmHg 53%
    15:00 +21°C° 0 mm 4 mps 737 mmHg 56%
    16:00 +20°C° 0 mm 4 mps 737 mmHg 59%
    17:00 +20°C° 0 mm 4 mps 736 mmHg 63%
    18:00 +17°C° 0 mm 3 mps 736 mmHg 71%
    19:00 +14°C° 0 mm 3 mps 736 mmHg 79%
    20:00 +12°C° 0 mm 2 mps 736 mmHg 87%
    21:00 +12°C° 0 mm 2 mps 736 mmHg 87%
    22:00 +10°C° 0 mm 2 mps 736 mmHg 88%
    23:00 +10°C° 0 mm 1 mps 736 mmHg 89%
    Show more